Skip Page Navigation
NASA JPL Caltech
NASA Logo - Jet Propulsion Laboratory + View the NASA Portal
+ Center for Near-Earth Object Studies
JPL Home Earth Solar System Stars & Galaxies Technology
JPL Solar System Dynamics
BODIES ORBITS EPHEMERIDES TOOLS PHYSICAL DATA DISCOVERY FAQ SITE MAP
IMPORTANT: The SSD Announcement email list is now available. Major changes are coming in the near future, including possible hostname and/or URL changes. To be notified of such changes, subscribe to this email list.

Please visit this page for more details.


JPL Small-Body Database Browser
Search: [ help ]  
39025 (2000 UA59)
Classification: Main-belt Asteroid          SPK-ID: 2039025
Ephemeris | Orbit Diagram | Orbital Elements | Mission Design | Physical Parameters | Discovery Circumstances | Close-Approach Data ]

[ show orbit diagram ]
Orbital Elements at Epoch 2459000.5 (2020-May-31.0) TDB
Reference: JPL 18 (heliocentric ecliptic J2000)
 Element Value Uncertainty (1-sigma)   Units 
e .07315836477965217 4.4837e-08  
a 2.318172861857706 9.7154e-09 au
q 2.14857912600763 1.0286e-07 au
i 2.914671003190664 4.193e-06 deg
node 289.6999485831787 8.7161e-05 deg
peri 255.6778556868853 9.1228e-05 deg
M 49.25964806218612 2.783e-05 deg
tp 2458824.097004004168
(2019-Dec-06.59700400)
9.961e-05 TDB
period 1289.190667345606
3.53
8.1045e-06
2.219e-08
d
yr
n .2792449628426384 1.7555e-09 deg/d
Q 2.487766597707783 1.0426e-08 au
  Orbit Determination Parameters
   # obs. used (total)      942  
   data-arc span      9696 days (26.55 yr)  
   first obs. used      1993-10-11  
   last obs. used      2020-04-28  
   planetary ephem.      DE431  
   SB-pert. ephem.      SB431-N16  
   condition code      0  
   norm. resid. RMS      .48967  
   source      ORB  
   producer      Otto Matic  
   solution date      2020-May-20 08:39:22  

Additional Information
 Earth MOID = 1.15218 au 
 Jupiter MOID = 2.481 au 
 T_jup = 3.574 
[ hide covariance matrix ]
Orbital Elements at Epoch 2456826.5 (2014-Jun-18.0) TDB
Reference: JPL 18 (heliocentric ecliptic J2000)
 Element Value Uncertainty (1-sigma)   Units 
e .07354220804817188 4.4754e-08  
q 2.147705452443645 1.0279e-07 au
tp 2456246.291357906279
(2012-Nov-14.79135791)
9.9948e-05 TDB
node 289.766714834698 8.7102e-05 deg
peri 255.7797673523693 9.1154e-05 deg
i 2.915757633958946 4.1948e-06 deg
  Orbit Determination Parameters
   # obs. used (total)      942  
   data-arc span      9696 days (26.55 yr)  
   first obs. used      1993-10-11  
   last obs. used      2020-04-28  
   planetary ephem.      DE431  
   SB-pert. ephem.      SB431-N16  
   condition code      0  
   norm. resid. RMS      .48967  
   source      ORB  
   producer      Otto Matic  
   solution date      2020-May-20 08:39:22  

Additional Information
 Jupiter MOID = 2.481 au 
 T_jup = 3.574 
Orbit Covariance (6×6)
  e q tp node peri i
e 2.002936490147621E-15 -4.582699109377883E-15 -1.226688845859368E-12 1.049813584818968E-14 -2.977873432176165E-13 3.630153176629268E-16
q -4.582699109377883E-15 1.056527261577077E-14 2.736927794996339E-12 -2.375507504479096E-14 6.696621206944379E-13 -7.570507105261229E-16
tp -1.226688845859368E-12 2.736927794996339E-12 9.989591099066623E-9 2.269601892536672E-11 2.705601864915284E-9 1.225354412252862E-12
node 1.049813584818968E-14 -2.375507504479096E-14 2.269601892536672E-11 7.586730983383489E-9 -7.569758202659427E-9 9.655036413759698E-11
peri -2.977873432176165E-13 6.696621206944379E-13 2.705601864915284E-9 -7.569758202659427E-9 8.308979903317172E-9 -9.606002135154563E-11
i 3.630153176629268E-16 -7.570507105261229E-16 1.225354412252862E-12 9.655036413759698E-11 -9.606002135154563E-11 1.759657378732629E-11

Ephemeris | Orbit Diagram | Orbital Elements | Mission Design | Physical Parameters | Discovery Circumstances | Close-Approach Data ]

Physical Parameter Table
Parameter Symbol Value Units Sigma Reference Notes
absolute magnitude H 15.5   n/a MPO365710  

39025 (2000 UA59)          Discovered 2000-Oct-25 by LINEAR at Socorro
Reference: 20020328/Numbers.arcLast Updated: 2004-04-19

[ show close-approach data ]
Ephemeris | Orbit Diagram | Orbital Elements | Mission Design | Physical Parameters | Discovery Circumstances | Close-Approach Data ]
ABOUT SSD CREDITS/AWARDS PRIVACY/COPYRIGHT GLOSSARY LINKS
FirstGov 2020-Jun-02 18:46 UT
(server date/time)  
NASA Home Page
Site Manager:   Ryan S. Park
Webmaster  Alan B. Chamberlin